Location: Igri�s
(42.2144°N, 0.4320°W)
Time: 15:59:48
(UTC+00:00)

Cosmos 1238 Rocket - Pass Details

Date: 13 August 2020
Orbit: 375 x 1027 km, 82.9° (Epoch: 18 September)

Event Time Altitude Azimuth Distance (km) Brightness Sun altitude
Exits shadow 20:44:48 49° 89° (E) 496 2.2 -16.9°
Drops below altitude 10° 20:47:36 10° 18° (NNE) 1,401 5.2 -17.3°
Sets 20:49:38 0° 13° (NNE) 2,282 6.4 -17.6°
